Johnstown, PA

5:17 AM EDT on April 27, 2018 (GMT -0400)
Johnstown-Cambria County

Weather History for KJST - July, 2013

Change the Weather History Date:

Saturday, July 6, 2013

  Actual Average Record
Temperature  
Mean Temperature 74 °F 69 °F  
Max Temperature 83 °F 78 °F 99 °F (1949)
Min Temperature 65 °F 60 °F 45 °F (1936)
Degree Days  
Heating Degree Days 0 1  
Month to date heating degree days 0 6  
Since 1 June heating degree days 63 85  
Since 1 July heating degree days 0 6  
Cooling Degree Days 9 5  
Month to date cooling degree days 44 25  
Year to date cooling degree days 153 118  
Since 1 June cooling degree days 113 100  
Growing Degree Days 24 (Base 50)    
Moisture  
Dew Point 66 °F    
Average Humidity 77    
Maximum Humidity 100    
Minimum Humidity 54    
Precipitation  
Precipitation 0.00 in 0.12 in 1.60 in (1950)
Month to date precipitation 0.46 0.72  
Year to date precipitation 8.70 17.36  
Sea Level Pressure  
Sea Level Pressure 30.20 in    
Wind  
Wind Speed 6 mph (SSW)    
Max Wind Speed 14 mph    
Max Gust Speed 20 mph    
Visibility 10 miles    
Events      
T = Trace of Precipitation, MM = Missing Value Source: NWS Daily Summary

Daily Weather History Graph

Daily Weather History Graph

Search for Another Location

Airport or City:

Astronomy

Jul. 06, 2013 Rise Set
Actual Time 5:52 AM EDT 8:47 PM EDT
Civil Twilight 5:19 AM EDT 9:20 PM EDT
Nautical Twilight 4:38 AM EDT 10:01 PM EDT
Astronomical Twilight 3:50 AM EDT 10:49 PM EDT
Moon 4:36 AM EDT (7/6) 7:27 PM EDT (7/6)
Length of Visible Light 16h 01m
Length of Day
14h 55m
Waning Crescent, 2% of the Moon is Illuminated
Jul 6
Waning Crescent
Jul 8
New
Jul 15
First Quarter
Jul 22
Full
Jul 29
Last Quarter

Hourly Weather History & Observations

Time (EDT) Temp. Heat Index Dew Point Humidity Pressure Visibility Wind Dir Wind Speed Gust Speed Precip Events Conditions
12:54 AM 66.9 °F - 66.0 °F 97% 30.20 in 10.0 mi WSW 4.6 mph - N/A   Clear
1:54 AM 69.1 °F - 66.9 °F 93% 30.19 in 10.0 mi SW 5.8 mph - N/A   Mostly Cloudy
2:54 AM 68.0 °F - 66.9 °F 96% 30.19 in 10.0 mi WSW 5.8 mph - N/A   Mostly Cloudy
3:06 AM 68.0 °F - 66.2 °F 94% 30.24 in 8.0 mi SSW 4.6 mph - N/A   Overcast
3:09 AM 68.0 °F - 66.2 °F 94% 30.24 in 7.0 mi SSW 4.6 mph - N/A   Overcast
3:41 AM 66.2 °F - 64.4 °F 94% 30.24 in 10.0 mi SW 4.6 mph - N/A   Scattered Clouds
3:54 AM 66.9 °F - 64.9 °F 93% 30.19 in 10.0 mi SSW 3.5 mph - N/A   Clear
4:54 AM 66.0 °F - 64.0 °F 93% 30.20 in 10.0 mi SW 3.5 mph - N/A   Clear
5:54 AM 66.9 °F - 64.9 °F 93% 30.19 in 10.0 mi SSW 5.8 mph - N/A   Clear
6:54 AM 66.9 °F - 66.0 °F 97% 30.22 in 10.0 mi SSW 4.6 mph - N/A   Clear
7:41 AM 69.8 °F - 66.2 °F 88% 30.26 in 10.0 mi SSW 4.6 mph - N/A   Partly Cloudy
7:54 AM 69.1 °F - 66.0 °F 90% 30.23 in 10.0 mi SSW 5.8 mph - N/A   Mostly Cloudy
8:17 AM 69.8 °F - 66.2 °F 88% 30.27 in 10.0 mi SW 6.9 mph - N/A   Overcast
8:30 AM 69.8 °F - 66.2 °F 88% 30.27 in 10.0 mi SW 6.9 mph - N/A   Mostly Cloudy
8:38 AM 69.8 °F - 66.2 °F 88% 30.26 in 10.0 mi SW 6.9 mph - N/A   Partly Cloudy
8:54 AM 70.0 °F - 66.9 °F 90% 30.23 in 10.0 mi WSW 5.8 mph - N/A   Partly Cloudy
9:16 AM 69.8 °F - 66.2 °F 88% 30.27 in 6.0 mi WSW 5.8 mph - N/A   Mostly Cloudy
9:30 AM 69.8 °F - 66.2 °F 88% 30.27 in 8.0 mi SW 5.8 mph - N/A   Scattered Clouds
9:54 AM 72.0 °F - 66.9 °F 84% 30.22 in 10.0 mi SW 5.8 mph - N/A   Partly Cloudy
10:19 AM 71.6 °F - 66.2 °F 83% 30.26 in 10.0 mi SW 4.6 mph - N/A   Mostly Cloudy
10:54 AM 75.0 °F - 66.9 °F 76% 30.22 in 10.0 mi South 6.9 mph - N/A   Mostly Cloudy
11:01 AM 73.4 °F - 66.2 °F 78% 30.26 in 10.0 mi SSW 5.8 mph - N/A   Mostly Cloudy
11:13 AM 75.2 °F - 66.2 °F 73% 30.26 in 10.0 mi SW 4.6 mph - N/A   Scattered Clouds
11:54 AM 77.0 °F - 66.0 °F 69% 30.22 in 10.0 mi South 8.1 mph - N/A   Clear
12:54 PM 79.0 °F - 64.0 °F 60% 30.19 in 10.0 mi Calm Calm - N/A   Partly Cloudy
1:54 PM 81.0 °F 82.2 °F 63.0 °F 54% 30.17 in 10.0 mi SW 8.1 mph - N/A   Partly Cloudy
2:54 PM 82.9 °F 84.4 °F 64.0 °F 53% 30.15 in 10.0 mi SW 5.8 mph - N/A   Mostly Cloudy
3:54 PM 82.0 °F 84.5 °F 66.9 °F 60% 30.13 in 10.0 mi SSE 9.2 mph - N/A   Mostly Cloudy
4:54 PM 82.0 °F 83.8 °F 64.9 °F 56% 30.12 in 10.0 mi SE 8.1 mph - N/A   Partly Cloudy
5:54 PM 82.0 °F 83.8 °F 64.9 °F 56% 30.09 in 10.0 mi SSE 11.5 mph - N/A   Partly Cloudy
6:54 PM 78.1 °F - 64.9 °F 64% 30.09 in 10.0 mi South 6.9 mph - N/A   Mostly Cloudy
7:54 PM 77.0 °F - 64.9 °F 66% 30.10 in 10.0 mi Calm Calm - N/A   Clear
8:54 PM 75.0 °F - 66.0 °F 73% 30.09 in 10.0 mi SSE 5.8 mph - N/A   Partly Cloudy
9:54 PM 75.0 °F - 66.0 °F 73% 30.10 in 10.0 mi SSE 9.2 mph - N/A   Mostly Cloudy
10:54 PM 75.0 °F - 64.9 °F 71% 30.12 in 10.0 mi SSW 5.8 mph - N/A   Clear
11:54 PM 72.0 °F - 64.9 °F 78% 30.12 in 10.0 mi South 4.6 mph - N/A   Clear